Location: Unspecified
(0.0000°N, 0.0000°E)
Time: 23:33:05
(UTC+00:00)

PROITERES - Visible Passes

Search period start: 01 March 2021 00:00
Search period end: 11 March 2021 00:00
Orbit: 630 x 649 km, 98.4° (Epoch: 01 March)

Date Brightness Start Highest point End Pass type
(mag) Time Alt. Az. Time Alt. Az. Time Alt. Az.
01 Mar ? 18:33:49 10° N 18:37:52 38° WNW 18:41:58 10° SW visible
02 Mar ? 05:11:21 10° ESE 05:13:26 13° ENE 05:15:31 10° NE visible
02 Mar ? 18:58:05 10° NNW 19:01:07 19° WNW 19:04:10 10° WSW visible
03 Mar ? 05:32:54 10° SE 05:36:40 27° ENE 05:40:24 10° NNE visible
05 Mar ? 18:30:29 10° N 18:34:39 44° WNW 18:38:51 10° SSW visible
06 Mar ? 05:08:48 10° E 05:10:13 11° ENE 05:11:38 10° ENE visible
06 Mar ? 18:54:35 10° NNW 18:57:53 21° WNW 19:01:13 10° SW visible
07 Mar ? 05:29:53 10° SE 05:33:27 24° ENE 05:36:59 10° NNE visible
09 Mar ? 18:27:10 10° N 18:31:25 50° WNW 18:35:43 10° SSW visible
10 Mar ? 18:51:08 10° NNW 18:54:40 24° WNW 18:58:14 10° SW visible
